Apple Cup Yearling Classic - Memorial Day Loft Settling Inventory

Station: loft Inventory - T Race

Distance: 10 Miles    

Release: 28-May-2018 09:00

Weather Release:    Arrival:

Wind at Release:     Wind at Arrival:

Temp at Release: °    Temp at Arrival: °

Lofts: 152

Birds: 622

Clocked: 621

843 Birds In The Loft
Drops Pos Breeder Pigeon Name Color Sex Ent Arrival Speed To Win Eligible
501 Dream Union - DC 26661-AU18-ARPU BB H 5 11:17:39.86 127.847 00:06:29 Yes
502 Dj Loft Of Utah - UT 19415-AU18-ARPU Neto Figo/Jetta BC H 10 11:17:41.66 127.819 00:06:31 Yes
503 Van Den Bossche Brothers - ME 8220-IF18-CMP Venus BB H 4 11:17:43.28 127.794 00:06:32 Yes
504 Jenkins Racing - CA 0723-AU18-WEF BB H 3 11:17:48.19 127.718 00:06:37 Yes
505 Shi Loft - PA 7781-IF18-ERIE BB H 11 11:17:52.51 127.652 00:06:41 Yes
506 Arnold Balatbat - CA 12425-AU18-JEDS BIG A. X GCC BB C 3 11:17:54.22 127.625 00:06:43 Yes
507 A P C Loft - TX 18326-AU18-APC BB H 15 11:17:56.30 127.593 00:06:45 Yes
508 Huan Qiu Zhang - NC 0015-AU18-HQZ BB H 6 11:17:57.77 127.571 00:06:47 Yes
509 Huan Qiu Zhang - NC 0021-AU18-HQZ BC H 7 11:17:58.96 127.552 00:06:48 Yes
510 Baldwin & Tilson - NC 8032-AU18-TENT BB H 3 11:17:59.70 127.541 00:06:49 Yes
511 Ken & Roly - NM 8853-AU18-EASL DC H 14 11:18:01.49 127.513 00:06:50 Yes
512 Nanez Family Lofts - WI 8194-AU18-NFL BB H 6 11:18:04.76 127.463 00:06:54 Yes
513 Dream Team - VT 18871-AU18-DT DC H 8 11:18:07.33 127.423 00:06:56 Yes
514 Dream Team - VT 0558-IF18-BQC BB H 9 11:18:08.17 127.411 00:06:57 Yes
515 Siguaraya & El Rey De Los Cielos - FL 30602-AU18-ARPU BC H 11 11:18:12.47 127.344 00:07:01 Yes
516 Shi Loft - PA 7758-IF18-ERIE BBWF H 12 11:18:20.67 127.219 00:07:10 Yes
517 Medina Loft - TX 1835-AU18-JJ BB H 3 11:18:21.87 127.200 00:07:11 Yes
518 Huan Qiu Zhang - NC 0003-AU18-HQZ BB H 8 11:18:35.90 126.986 00:07:25 Yes
519 James Wiese - OR 0536-AU18-JEDS SLAT H 1 11:18:52.05 126.740 00:07:41 Yes
520 Irishsyndicatelofts - AZ 0079-AU18-IRSH BC H 5 11:18:53.52 126.717 00:07:43 Yes
521 Dream Team - VT 18849-AU18-DT PIED H 10 11:18:57.84 126.652 00:07:47 Yes
522 John Partridge - CA 1019-AU18-PASO SPLH H 3 11:18:59.69 126.623 00:07:49 Yes
523 Miami Syndicate Loft - FL 4017-AU18-SCHE BB H 17 11:19:01.25 126.600 00:07:50 Yes
524 Racing Pigeon Mall - WA 0805-AU18-RPM BB H 3 11:19:01.99 126.588 00:07:51 Yes
525 James Wiese - OR 0535-AU18-JEDS BC H 2 11:19:03.28 126.569 00:07:52 Yes
526 Shang N Dennis Yoh - CA 8843-AU18-JEDS BC H 3 11:19:03.50 126.566 00:07:52 Yes
527 Crooked River Challenge - OR 2230-AU18-CORP BB H 2 11:19:04.48 126.551 00:07:53 Yes
528 Dekeratry Loft - TX 8432-AU18-HOT BGRZ H 2 11:19:05.17 126.540 00:07:54 Yes
529 Baldwin & Tilson - NC 8009-AU18-TENT RB H 4 11:19:06.09 126.526 00:07:55 Yes
530 Irishsyndicatelofts - AZ 0098-AU18-IRSH BCWF H 6 11:19:08.89 126.484 00:07:58 Yes
531 Serendipity Loft - CA 0540-AU18-SKYL DC H 2 11:19:09.25 126.478 00:07:58 Yes
532 Hawaii Syndicate - HI 0182-AU18-FIA BB H 4 11:19:13.75 126.410 00:08:03 Yes
533 Red Ass Ranch - TX 0303-AU18-RAR BB H 6 11:19:15.74 126.380 00:08:05 Yes
534 Vpslb.Com - CA 21202-AU18-ARPU BB H 4 11:19:18.17 126.343 00:08:07 Yes
535 Dj Loft Of Utah - UT 19406-AU18-ARPU Mona Lisa IV BB H 11 11:19:19.61 126.322 00:08:09 Yes
536 David Clausing - FL 0121-IF18-CLAU BCWF H 10 11:19:21.86 126.288 00:08:11 Yes
537 Blue Bucket Stampede - OR 2603-AU18-CORP BB H 4 11:19:22.32 126.281 00:08:11 Yes
538 Eastern Pearl Loft - VA 0378-AU18-EPL 🈚️量 378 BC H 7 11:19:23.11 126.269 00:08:12 Yes
539 Barry Venn - WY 18084-AU18-VENN DC H 6 11:19:24.03 126.255 00:08:13 Yes
540 Doucet Lofts - CA 0006-AU18-LA BBWF H 1 11:19:31.06 126.149 00:08:20 Yes
541 Irishsyndicatelofts - AZ 0159-IF18-IRIS BC H 7 11:19:34.56 126.096 00:08:24 Yes
542 Ganus Family Loft - IN 0819-AU18-GFL BB H 9 11:19:35.30 126.085 00:08:24 Yes
543 Shi Loft - PA 63398-AU18-ARPU BCWF H 13 11:19:36.03 126.074 00:08:25 Yes
544 Jenkins Racing - CA 0713-AU18-WEF BB H 4 11:19:47.35 125.904 00:08:36 Yes
545 American Lofts - OR 2556-AU18-CORP SPLH H 11 11:19:51.49 125.842 00:08:40 Yes
546 Heinsohn Boys - TX 0107-AU18-EZ BC H 4 11:19:53.97 125.805 00:08:43 Yes
547 Tierney Family Loft - MD 0150-AU18-TL BBWF H 3 11:19:57.29 125.755 00:08:46 Yes
548 L S U Loft - LA 0171-AU18-LSU BC H 14 11:20:00.27 125.710 00:08:49 Yes
549 Siguaraya & El Rey De Los Cielos - FL 29112-AU18-ARPU The Raven BB H 12 11:20:03.08 125.668 00:08:52 Yes
550 David Clausing - FL 0095-IF18-CLAU BC H 11 11:20:04.56 125.646 00:08:54 Yes
551 Nanez Family Lofts - WI 8195-AU18-NFL PIED H 7 11:20:06.77 125.613 00:08:56 Yes
552 Fl Lin Loft - FL 65307-AU18-ARPU BB H 5 11:20:07.02 125.609 00:08:56 Yes
553 First Flight Loft - GA 18502-AU18-ARPU I'm An Angel DC H 1 11:20:09.47 125.573 00:08:58 Yes
554 David Clausing - FL 0084-IF18-CLAU BB H 12 11:20:11.27 125.546 00:09:00 Yes
555 Woodland Loft - NY 0030-IF18-WOOD BC H 3 11:20:12.01 125.535 00:09:01 Yes
556 Friends Of Fatima - BC 57706-AU18-ARPU BB H 3 11:20:12.47 125.528 00:09:01 Yes
557 Shi Loft - PA 46454-AU18-ARPU BB H 14 11:20:13.57 125.512 00:09:03 Yes
558 Warbird Loft - CO 8632-AU18-FH BBWF H 5 11:20:17.16 125.458 00:09:06 Yes
559 David Clausing - FL 0141-IF18-CLAU BB H 13 11:20:17.43 125.454 00:09:06 Yes
560 Hawaii Syndicate - HI 0190-AU18-FIA BBWF H 5 11:20:19.00 125.431 00:09:08 Yes
561 Irishsyndicatelofts - AZ 0161-IF18-IRIS BB H 8 11:20:20.03 125.415 00:09:09 Yes
562 Perrin - WA 4050-AU18-CORP BC H 2 11:20:21.13 125.399 00:09:10 Yes
563 John Partridge - CA 1013-AU18-PASO BB H 4 11:20:23.86 125.358 00:09:13 Yes
564 Horse Heaven Hills - OR 0825-AU18-HHH BC H 10 11:20:24.11 125.354 00:09:13 Yes
565 Hogtowns Loft - VA 22524-AU18-FOYS BC H 3 11:20:25.63 125.332 00:09:15 Yes
566 L S U Loft - LA 24037-AU18-AA RB H 15 11:20:30.01 125.267 00:09:19 Yes
567 Miami Syndicate Loft - FL 1008-AU18-FMI BC H 18 11:20:31.70 125.242 00:09:21 Yes
568 Solache / Finn - TX 3202-AU18-VITA BB H 3 11:20:36.52 125.170 00:09:26 Yes
569 P J Loft - MD 2637-AU18-GSV BB H 2 11:20:37.31 125.158 00:09:26 Yes
570 Dj Loft Of Utah - UT 19424-AU18-ARPU Wolverine x African Mona BBWF H 12 11:20:39.07 125.132 00:09:28 Yes
571 Dream Team - VT 18876-AU18-DT BC H 11 11:20:47.66 125.005 00:09:37 Yes
572 L S U Loft - LA 24040-AU18-AA PIED H 16 11:20:48.69 124.990 00:09:38 Yes
573 Woodland Loft - NY 0016-IF18-WOOD BC H 4 11:20:56.12 124.880 00:09:45 Yes
574 Shi Loft - PA 63390-AU18-ARPU BC H 15 11:20:57.70 124.857 00:09:47 Yes
575 Alan Porter - WI 0474-AU18-RRR PIED H 11 11:20:59.63 124.828 00:09:49 Yes
576 David Clausing - FL 0080-IF18-CLAU GRIZ H 14 11:21:10.08 124.674 00:09:59 Yes
577 Ken & Roly - NM 8852-AU18-EASL BB H 15 11:21:24.47 124.463 00:10:13 Yes
578 Ganus Family Loft - IN 0351-AU18-GFL BB H 10 11:21:34.18 124.320 00:10:23 Yes
579 Miami Syndicate Loft - FL 4003-AU18-SCHE PIED H 19 11:21:35.85 124.296 00:10:25 Yes
580 Marengo Creek Farms - AL 3012-AU18-MCF BB H 8 11:21:36.95 124.280 00:10:26 Yes
581 Warbird Loft - CO 8605-AU18-FH DC H 6 11:21:38.69 124.254 00:10:28 Yes
582 Westfall Loft - MO 0388-AU18-IMOI BCWF H 4 11:21:40.81 124.223 00:10:30 Yes
583 Burge Family Loft - CA 0126-AU18-BURG DC H 5 11:22:00.16 123.941 00:10:49 Yes
584 L S U Loft - LA 0152-AU18-LSU BGRZ H 17 11:22:33.85 123.453 00:11:23 Yes
585 Shi Loft - PA 63382-AU18-ARPU BC H 16 11:22:35.23 123.433 00:11:24 Yes
586 Jenkins Racing - CA 0706-AU18-WEF BCWF H 5 11:23:06.01 122.991 00:11:55 Yes
587 Shi Loft - PA 63350-AU18-ARPU BC H 17 11:23:58.23 122.247 00:12:47 Yes
588 Crazyfast Loft/Peter - MN 3835-AU18-FOYS DC H 4 11:24:21.38 121.921 00:13:10 Yes
589 Shi Loft - PA 63397-AU18-ARPU BB H 18 11:24:25.79 121.858 00:13:15 Yes
590 Jenkins Racing - CA 0709-AU18-WEF BB H 6 11:24:32.46 121.765 00:13:21 Yes
591 Bird Dog Syndicate 2 - CA 0132-AU18-BURG BC H 4 11:25:32.41 120.929 00:14:21 Yes
592 Burge Family Loft - CA 0130-AU18-BURG SPLH H 6 11:25:38.80 120.840 00:14:28 Yes
593 David Clausing - FL 0136-IF18-CLAU GRIZ H 15 11:26:38.37 120.022 00:15:27 Yes
594 Miami Syndicate Loft - FL 4024-AU18-SCHE BB H 20 11:29:40.11 117.593 00:18:29 Yes
595 Alex Schubert - WY 0425-AU18-NCF BLAK H 2 11:32:41.02 115.271 00:21:30 Yes
596 Bird Dog Syndicate 2 - CA 0101-AU18-BURG BB H 5 11:32:41.53 115.265 00:21:30 Yes
597 Alan Porter - WI 0426-AU18-RRR BC H 12 11:32:46.76 115.199 00:21:36 Yes
598 American Lofts - OR 2570-AU18-CORP GRIZ H 12 11:32:54.64 115.100 00:21:44 Yes
599 Dream Team - VT 18471-AU18-DT BB H 12 11:33:04.24 114.980 00:21:53 Yes
600 Tsr Syndicate - MN 0404-AU18-TSR BLAK H 1 11:35:20.62 113.297 00:24:10 Yes

There are 977 bird records

Note: These Race Results are unofficial and subject to change until verified by the Race Committee and declared final.